Hourly Data Report for September 16, 2017

All times are specified in Local Standard Time (LST). Add 1 hour to adjust for Daylight Saving Time where and when it is observed.

KOUCHIBOUGUAC CS
NEW BRUNSWICK

46°47'00.000" N
65°01'00.000" W
21.00 m
8102328
71670
AKC

Download Data

Hourly Data (September 2017)
Hourly Data Report for September 16, 2017
Temp Definition
°C
Dew Point Temp Definition
°C
Rel Hum Definition
%
Wind Dir Definition
10's deg

Wind Spd Definition
km/h
Visibility Definition
km
Stn Press Definition
kPa
Hmdx Definition


Wind Chill Definition


Weather Definition


TIME
00:00 13.5 11.6 89 18 8   101.73     LegendNANA
01:00 11.7 10.7 94 0 1   101.73     LegendNANA
02:00 10.3 9.8 97 29 2   101.70     LegendNANA
03:00 11.3 10.5 95 26 2   101.71     LegendNANA
04:00 11.4 10.8 96 20 5   101.67     LegendNANA
05:00 13.4 12.8 96 22 6   101.66     LegendNANA
06:00 12.8 12.3 97 21 6   101.63     LegendNANA
07:00 13.6 13.2 97 21 6   101.66     LegendNANA
08:00 15.1 14.3 95 22 8   101.68     LegendNANA
09:00 17.6 15.6 88 22 9   101.69     LegendNANA
10:00 20.6 16.7 79 21 9   101.64 26   LegendNANA
11:00 22.6 17.0 71 23 8   101.58 28   LegendNANA
12:00 24.5 17.2 64 24 8   101.58 30   LegendNANA
13:00 25.8 16.6 57 30 7   101.59 31   LegendNANA
14:00 20.3 14.7 70 4 13   101.61     LegendNANA
15:00 16.3 12.5 78 4 16   101.77     LegendNANA
16:00 15.0 11.7 81 3 13   101.85     LegendNANA
17:00 14.8 11.5 81 4 9   101.90     LegendNANA
18:00 14.2 11.3 83 4 9   101.96     LegendNANA
19:00 14.0 10.8 81 5 5   102.00     LegendNANA
20:00 13.4 9.8 79 8 4   102.00     LegendNANA
21:00 12.4 10.0 86 6 3   102.03     LegendNANA
22:00 10.8 9.5 92 5 1   102.08     LegendNANA
23:00 12.2 10.3 88 5 2   102.07     LegendNANA

Notes on Data Quality.

Legend

  • E = Estimated
  • M = Missing
  • NA = Not Available
  • ‡ = Partner data that is not subject to review by the National Climate Archives
Date modified: